RH
35 32 29 29 29 30 31 32 32 34 36 38 38 40 44 48 48 50 52 54 54 54 53 50 50 48 43 39 37 37 38 41 42 45 46 44 41 40 39 38 38 36 33 33 32 32 33 35 36 38 40 41 41 40 40 40 40 40 40 40 39 39 38 37 37 36 36 36 35 36 36 37 36 36 35 34 33 33 32 31 30 29 29 28 28
39 35 32 30 29 28 30 31 32 32 33 35 37 38 41 44 46 47 49 51 51 50 50 50 49 47 43 39 37 35 34 35 38 41 44 42 40 41 41 39 39 36 32 32 33 33 35 37 38 40 41 41 41 40 40 40 40 39 39 38 37 37 37 37 38 37 36 35 33 33 34 34 34 33 33 31 31 31 30 30 29 29 28 28 28
50 41 35 33 31 30 30 30 31 32 32 32 34 35 37 41 45 45 45 48 49 47 47 49 48 46 42 39 37 36 34 34 36 38 41 41 40 42 44 42 40 37 34 33 33 34 36 38 39 40 41 41 41 41 40 39 39 38 38 38 37 36 36 37 38 37 37 35 33 33 33 32 32 31 31 31 30 30 30 29 29 29 28 27 27
61 51 41 36 34 33 32 31 31 32 32 31 31 32 34 38 42 44 43 45 48 47 46 46 47 46 43 40 38 37 35 34 35 36 38 40 39 40 43 42 40 38 35 33 33 34 36 37 38 38 38 38 38 38 37 36 36 35 36 37 37 36 36 36 36 36 36 35 33 33 33 32 32 31 31 30 30 29 29 28 28 28 28 27 26
68 61 51 43 38 35 34 34 32 31 32 32 31 31 32 35 39 42 43 43 46 48 47 46 48 47 44 41 38 37 37 36 35 35 36 37 37 38 40 41 39 38 36 34 33 34 35 36 36 36 36 36 35 35 34 34 34 34 34 34 34 36 36 36 36 35 34 33 33 32 31 31 30 30 30 29 28 28 27 27 27 27 26 26 25
74 69 62 55 48 41 36 35 34 32 31 32 32 32 32 32 36 40 41 42 44 46 48 48 50 49 44 41 38 37 37 36 35 36 36 35 35 35 36 36 35 35 35 35 35 34 34 34 35 35 35 35 35 34 35 35 35 35 35 35 35 35 36 36 36 35 34 33 32 31 30 29 28 28 28 27 26 26 25 25 26 25 24 23 23
81 77 72 67 62 54 45 39 38 35 32 31 32 33 33 32 33 36 39 41 42 44 47 48 50 50 46 42 39 37 36 35 34 35 35 35 34 33 33 33 32 33 33 34 34 34 34 33 33 33 34 34 34 35 35 35 35 34 35 35 36 36 36 36 37 37 37 35 35 33 32 31 29 29 29 29 28 28 27 25 25 23 22 21 20
85 84 82 79 75 69 60 50 45 41 38 36 34 33 34 33 32 33 36 39 41 43 46 48 49 50 48 45 40 37 35 33 32 32 33 33 33 32 32 32 32 32 32 33 33 33 33 32 32 32 32 33 33 34 34 33 32 31 31 33 35 36 37 37 37 37 38 38 38 37 36 34 33 32 32 32 31 30 29 27 26 24 23 22 21
84 84 85 86 84 79 72 63 56 49 44 42 40 37 35 35 34 33 34 36 39 43 45 48 49 49 48 46 44 40 36 33 32 32 32 32 32 32 32 32 32 32 31 31 31 30 30 29 29 29 30 30 30 31 31 30 29 28 29 31 34 35 35 35 36 36 36 36 36 35 34 34 33 32 31 30 30 30 29 29 28 27 26 24 22
86 86 85 86 87 84 79 74 68 60 52 47 46 44 40 39 38 38 35 34 36 41 45 48 50 50 48 48 46 44 40 36 33 33 33 33 33 32 32 32 31 31 30 30 29 28 28 28 27 28 28 28 28 28 29 29 30 30 30 31 33 34 34 34 35 35 35 34 33 33 32 32 31 31 30 29 29 29 29 29 29 28 28 27 23
91 91 89 87 88 87 86 84 78 71 65 58 53 50 46 43 43 42 40 38 37 39 43 46 49 50 50 49 48 46 44 41 37 34 33 33 33 32 32 31 31 30 30 30 29 29 29 29 29 28 28 27 27 28 29 29 30 31 31 32 32 33 33 33 33 33 34 33 33 33 32 31 30 30 30 29 28 28 28 28 27 27 28 28 25
89 89 89 88 87 87 88 88 85 81 78 73 67 62 54 47 46 47 47 44 41 42 44 45 48 49 50 49 48 47 45 43 41 38 35 33 32 32 31 31 30 30 30 29 29 30 30 30 30 30 29 29 29 29 29 29 30 30 31 32 32 32 32 32 32 32 32 32 32 32 31 31 30 28 28 28 28 27 27 27 27 28 28 29 28
87 88 90 89 89 87 86 87 87 88 87 83 79 78 70 58 52 52 51 48 45 43 43 45 46 47 49 49 48 46 45 43 42 40 38 36 33 32 31 30 30 29 29 30 29 30 30 31 31 31 32 32 32 32 31 31 31 31 32 32 32 32 32 32 32 31 31 31 31 30 29 29 29 29 29 29 29 29 30 29 29 29 29 30 29
87 89 90 91 91 91 90 90 90 91 90 87 85 84 81 74 67 61 57 56 54 47 41 41 43 45 47 48 47 46 45 43 41 40 39 38 36 34 32 30 30 29 29 30 30 30 31 31 31 31 32 32 32 33 33 33 32 32 31 31 31 31 31 31 31 31 31 31 30 29 29 28 29 30 30 30 30 31 31 32 31 31 30 30 29
88 89 89 89 90 90 91 92 92 91 91 90 88 85 83 82 81 75 69 68 68 59 46 40 40 41 42 42 43 43 43 42 41 40 39 39 38 37 35 33 31 31 30 30 31 31 32 32 32 31 31 31 32 32 32 31 30 30 29 29 29 28 28 29 29 29 29 29 29 28 28 28 28 29 29 29 29 30 31 32 32 32 31 30 29
89 87 86 87 88 88 89 90 90 91 91 90 90 88 86 86 86 84 79 76 75 71 62 52 47 44 43 42 41 41 40 40 40 40 39 39 39 38 37 36 34 33 33 33 33 33 34 34 33 33 33 33 34 35 34 32 31 31 30 29 29 28 28 28 28 28 27 27 26 26 26 26 26 26 27 27 27 27 28 29 30 31 30 30 29
85 83 82 85 87 86 86 87 89 91 92 91 91 90 89 88 87 86 86 83 80 78 75 71 65 57 52 50 48 45 43 42 42 42 42 42 41 41 40 39 38 37 38 38 38 39 40 41 40 39 38 39 41 41 40 38 36 35 33 32 31 29 29 31 31 31 30 28 27 26 25 25 25 25 26 26 26 26 26 27 28 29 29 29 28
82 80 78 81 84 84 83 84 86 89 90 90 91 90 89 88 88 87 87 87 86 83 81 80 77 69 61 57 55 53 51 50 48 48 47 47 48 50 51 50 48 48 48 49 49 49 50 50 49 47 46 46 47 48 48 46 44 43 41 40 37 35 34 35 35 34 33 32 30 29 28 27 27 27 26 27 27 27 26 27 28 29 29 28 27
77 77 76 76 78 79 80 81 83 85 85 86 87 89 90 90 89 89 88 88 88 87 85 85 84 80 73 65 61 61 61 61 60 61 61 59 56 56 58 58 58 57 57 57 58 57 56 55 54 52 51 50 50 51 52 51 49 48 47 45 44 42 41 40 38 37 36 35 34 32 31 30 30 29 29 29 29 29 29 29 30 31 30 29 29
70 72 74 74 72 71 70 71 74 77 79 80 81 83 85 87 88 88 88 88 88 88 88 88 87 86 82 76 72 71 72 71 72 72 72 69 63 59 58 56 56 56 56 57 58 58 58 58 56 55 54 54 54 54 54 53 51 50 49 48 46 45 43 42 41 41 40 39 38 37 37 35 34 32 31 31 31 31 32 32 33 33 33 33 32
63 65 68 70 68 65 62 62 66 68 68 69 72 73 72 74 78 82 84 85 86 87 89 89 88 89 89 85 82 81 80 79 78 77 76 75 71 68 66 63 61 60 60 60 60 60 60 59 59 58 57 56 56 56 56 56 56 55 54 54 52 51 49 46 46 46 46 46 46 45 44 43 42 38 35 34 34 34 34 34 34 35 36 35 35
55 56 59 61 62 61 59 59 63 66 65 64 67 68 66 65 69 74 78 80 82 85 88 89 88 89 90 88 86 86 85 84 83 82 82 82 82 81 81 79 76 74 72 72 72 71 70 69 67 65 65 64 63 61 61 61 61 61 60 59 58 58 56 55 55 57 57 57 56 54 53 52 50 47 44 40 37 37 36 35 34 35 36 36 36
47 47 48 51 53 54 55 57 61 65 65 64 64 64 64 63 65 67 70 74 79 83 86 87 87 87 86 85 85 87 87 86 86 87 87 87 87 88 89 88 86 83 82 82 81 79 78 77 76 76 75 74 72 70 69 69 69 68 68 66 64 63 62 62 63 65 64 64 63 62 63 62 61 59 57 53 48 44 41 39 39 41 42 42 40
44 43 44 45 47 48 48 50 53 56 58 59 58 57 57 59 61 61 61 64 70 76 80 82 84 85 85 83 84 86 86 84 84 85 86 85 86 86 86 85 84 83 82 82 81 80 79 78 79 79 79 76 74 73 72 70 69 69 70 70 70 69 69 70 71 71 70 68 67 67 67 68 68 68 67 66 63 60 57 55 54 52 51 50 47
42 43 44 43 44 44 44 44 45 46 48 50 51 51 52 53 55 56 55 55 58 65 70 72 74 78 81 80 81 83 85 84 84 83 82 81 81 81 80 79 77 77 76 75 73 74 76 75 74 74 74 72 71 70 70 68 66 66 66 67 68 70 71 71 71 70 67 66 65 65 65 66 67 66 68 69 69 68 67 66 63 60 58 57 54
43 43 43 41 41 41 43 44 43 43 43 43 45 47 49 51 52 52 52 52 53 57 61 62 62 66 69 70 70 72 75 79 80 81 81 80 78 78 77 76 76 75 75 73 71 70 72 73 73 72 71 70 68 68 69 69 69 67 66 66 66 67 67 67 66 64 63 62 61 59 59 60 60 61 63 65 66 67 67 66 66 65 65 64 62
43 43 42 41 41 40 40 41 42 42 42 42 42 43 45 47 48 50 51 52 52 53 55 56 56 57 58 59 59 59 60 62 63 65 67 69 69 69 68 67 67 67 68 68 68 67 67 66 66 66 66 66 65 66 67 69 69 68 67 66 66 66 66 65 65 64 64 63 62 61 60 59 57 57 60 62 64 66 66 65 66 67 67 67 65
42 41 41 40 39 39 38 37 37 37 38 39 39 40 41 41 42 43 45 47 48 49 49 51 52 53 53 54 54 54 54 55 54 53 53 54 56 56 55 53 52 51 51 53 55 56 55 53 53 53 53 54 55 57 59 61 62 62 62 62 63 65 66 66 67 67 67 66 65 64 63 62 60 59 61 61 62 63 64 66 67 68 67 65 63
48 45 43 41 39 38 37 36 35 34 34 34 34 34 35 35 36 37 38 39 40 42 43 44 46 48 49 50 51 51 50 51 50 49 47 45 45 44 44 43 41 40 40 40 41 43 44 43 43 44 44 45 46 46 47 48 48 49 50 53 55 59 62 64 66 69 70 70 70 69 68 67 66 65 66 66 65 63 64 67 68 68 68 66 64
51 51 49 48 46 44 42 40 38 36 35 34 34 34 34 33 33 33 33 34 34 36 37 38 39 41 42 43 44 44 43 42 41 40 40 38 36 35 34 33 32 32 33 34 35 36 37 39 40 40 40 40 40 39 39 39 39 41 43 45 49 52 55 57 61 63 65 66 68 69 70 71 72 71 70 69 67 65 65 66 67 67 67 66 65
48 49 50 51 51 50 49 47 44 42 39 37 36 36 36 37 36 34 33 33 33 33 33 33 33 34 34 34 34 34 34 33 32 31 30 29 29 28 27 27 27 27 28 29 30 32 34 36 38 39 38 38 37 36 36 37 38 40 41 42 44 45 46 48 50 53 56 58 60 62 66 69 71 72 72 70 67 65 65 67 67 67 67 66 66
46 46 47 49 50 51 51 50 48 46 44 41 38 36 34 34 35 35 34 34 33 33 32 31 30 30 29 28 28 27 27 27 26 25 23 23 22 23 23 23 23 24 25 26 28 30 31 33 35 36 36 37 38 39 39 40 41 42 41 41 40 40 40 41 42 44 48 52 56 60 63 65 66 67 69 70 70 68 68 68 68 69 68 68 68
46 46 46 46 47 48 47 47 46 45 44 43 41 38 35 33 32 32 32 32 32 31 31 30 30 29 28 28 27 25 24 23 22 22 21 20 20 20 20 21 21 21 22 24 26 28 30 32 34 35 35 36 38 40 41 41 40 40 40 40 39 38 38 40 41 42 44 46 49 53 57 60 63 64 64 66 68 69 69 68 67 67 67 68 69
45 46 47 46 45 45 44 44 43 42 41 40 40 39 38 36 35 33 32 30 30 30 31 31 31 30 30 29 29 28 27 25 23 23 22 21 20 20 20 20 21 23 24 25 26 28 30 32 34 35 34 35 35 36 36 36 36 36 36 36 36 35 35 35 36 37 39 40 42 43 45 48 52 56 58 60 63 65 67 67 67 66 65 65 65
44 44 44 43 43 42 42 42 42 42 41 40 39 38 37 37 37 36 35 33 32 30 30 29 30 31 31 30 30 29 28 27 26 25 24 23 22 21 20 21 22 23 25 27 28 28 29 30 32 32 33 33 33 33 34 34 33 33 33 33 32 32 32 31 30 29 29 30 32 35 37 38 41 43 46 49 52 55 58 60 61 63 64 63 62
40 40 39 39 38 38 37 37 39 41 42 41 40 39 38 37 38 38 37 36 35 34 32 31 30 30 31 31 31 30 29 28 27 27 26 25 24 23 22 21 21 21 22 24 25 25 26 27 28 30 31 32 32 34 34 34 33 33 33 32 31 31 30 30 29 27 25 24 23 24 26 29 32 34 35 37 40 42 45 47 49 52 55 56 56
36 35 34 34 34 34 34 34 35 36 38 40 40 40 39 38 38 38 37 36 36 35 34 33 32 31 30 30 29 29 28 27 26 25 25 24 23 22 22 22 21 21 22 22 22 23 24 25 26 27 28 28 29 31 32 32 32 32 31 30 29 29 29 28 27 27 25 24 23 23 23 23 24 25 26 29 32 34 36 38 39 40 42 44 45
32 33 33 33 33 32 32 31 31 31 32 33 34 34 35 35 36 36 36 35 34 34 33 32 31 30 29 28 27 26 25 23 22 22 21 21 22 22 22 22 22 22 22 22 22 22 23 24 25 26 27 27 28 29 30 30 30 30 29 28 28 29 29 28 26 24 23 22 23 25 26 26 24 23 22 23 25 27 29 31 32 32 33 34 35
30 31 32 32 32 33 32 31 30 29 28 27 27 28 28 29 30 31 32 32 32 31 30 29 28 29 30 30 28 25 24 23 23 22 22 21 22 22 23 23 23 23 23 23 23 24 25 26 27 28 29 30 30 30 30 31 30 30 30 29 30 30 30 29 27 26 25 24 24 26 27 27 25 24 22 22 22 22 23 23 24 24 25 26 27
29 29 29 29 29 29 29 29 29 28 28 27 27 26 26 27 27 28 30 31 32 32 30 29 29 30 32 32 31 29 28 27 27 27 27 26 27 27 27 27 27 26 26 26 26 27 28 29 30 30 31 31 31 31 31 31 31 31 31 31 31 31 30 30 30 29 28 28 27 26 26 25 24 22 21 19 19 19 18 18 18 18 18 18 19
26 27 27 27 27 27 27 26 27 27 27 27 27 27 28 29 30 32 33 34 34 34 32 32 33 33 33 32 31 30 29 29 29 30 31 31 31 32 32 31 31 30 30 30 30 30 31 31 31 31 31 31 31 31 31 31 31 31 31 31 31 31 30 30 30 29 29 28 27 26 26 25 24 23 21 19 18 17 16 15 15 14 14 15 15
27 26 26 26 26 26 27 27 27 27 27 27 29 31 33 34 35 35 35 34 34 34 33 33 34 33 32 30 28 28 29 30 31 32 33 33 33 33 33 33 32 32 32 32 32 32 32 32 32 32 32 32 31 31 31 31 31 31 30 30 30 30 29 29 29 28 27 27 26 25 25 24 24 23 21 19 18 18 16 16 15 15 14 14 14
32 30 29 28 27 26 27 27 28 29 30 32 35 37 37 37 37 36 35 35 34 34 34 33 33 33 31 29 28 28 29 30 31 31 31 31 32 32 31 32 32 32 32 32 32 32 32 32 32 32 32 31 31 31 31 30 30 30 29 29 29 29 28 28 28 27 27 26 25 24 24 23 22 21 20 19 18 18 17 17 16 15 15 15 14
39 35 33 31 30 29 30 30 30 31 33 35 37 38 38 38 37 36 36 35 35 34 34 34 33 33 32 30 29 29 29 29 30 30 30 31 31 31 31 31 31 31 31 31 31 31 32 32 32 31 31 31 31 30 30 29 29 29 28 28 28 28 28 27 27 27 26 26 25 24 23 22 22 22 21 20 19 18 18 17 16 16 15 15 14
44 40 37 34 33 33 34 35 34 34 35 35 34 35 35 34 34 34 34 35 34 34 34 33 33 32 30 29 30 30 30 30 30 31 31 31 31 31 32 32 32 32 32 32 32 32 31 31 31 31 31 31 31 31 30 30 29 29 29 28 27 27 27 26 26 26 26 25 24 24 23 22 22 22 21 21 21 20 19 18 17 17 16 15 14
49 43 39 37 37 38 39 39 38 37 36 34 32 32 31 30 31 32 34 34 32 32 30 29 28 27 27 27 29 30 31 32 33 33 32 31 31 32 33 33 32 32 32 32 32 32 31 31 31 30 30 30 30 29 29 30 29 29 29 29 29 28 28 27 27 26 25 25 25 24 23 22 22 22 22 22 22 21 21 20 19 18 17 16 16
55 48 42 41 42 43 42 41 39 37 35 32 30 30 29 29 30 32 31 29 28 27 26 26 25 26 26 27 28 28 29 30 31 30 30 31 33 34 33 32 31 32 32 31 32 32 31 31 31 31 30 30 29 29 29 29 29 29 29 29 29 30 30 30 29 28 28 28 27 27 26 25 24 23 23 23 23 22 22 21 20 20 19 18 17
59 53 49 48 49 48 45 41 38 36 33 31 30 29 29 29 29 29 28 27 27 27 27 27 27 27 26 26 26 26 26 27 27 28 30 33 35 35 32 31 31 31 30 29 31 31 31 32 32 31 31 31 30 30 30 29 29 29 29 29 29 29 29 30 30 30 30 30 30 30 30 29 28 27 27 26 25 24 23 22 21 21 20 20 19
58 55 55 56 55 52 48 43 38 34 32 30 30 29 29 29 29 29 29 29 29 29 28 28 27 26 25 25 25 24 24 26 27 29 31 34 34 32 31 31 32 30 29 29 30 31 31 32 33 33 33 33 32 32 31 31 30 30 30 29 29 30 30 31 31 32 33 34 33 33 33 33 32 31 31 29 29 27 25 25 24 23 23 23 21
57 57 57 57 54 51 47 44 41 38 35 34 33 31 30 30 30 30 31 30 29 28 28 27 27 26 25 24 24 24 24 26 28 30 31 31 31 30 30 30 30 30 30 31 32 33 35 35 35 35 35 35 34 34 34 33 33 33 32 32 32 32 32 33 34 35 36 37 36 35 35 34 33 33 32 31 31 31 29 29 28 28 28 28 26
59 58 57 54 51 48 45 44 43 41 39 38 36 34 33 32 32 31 30 29 28 27 27 26 26 26 26 25 26 25 26 26 27 28 28 29 29 29 29 29 29 29 31 32 34 36 38 38 37 35 35 35 35 35 36 36 36 36 36 36 36 36 36 37 37 38 39 40 38 37 37 36 35 34 33 33 33 33 33 33 33 33 32 32 31